GW7483 Weather Reports


time (UTC)temp
C
wind
direction
speed
KPH
gust
KPH
rain 1hr
cm
rain 24hr
cm
rain mn
cm
humidity
%
barometer
mb
20260906103111 34 224 3.2 12.9 0.00 0.00 0.00 44 1018.5
20260906101503 33 271 3.2 11.3 0.00 0.00 0.00 40 1018.7
20260906100059 33 162 3.2 11.3 0.00 0.00 0.00 40 1018.7
20260906094546 33 262 1.6 6.4 0.00 0.00 0.00 39 1018.8
20260906093041 33 241 1.6 11.3 0.00 0.00 0.00 41 1018.9
20260906091536 32 193 3.2 12.9 0.00 0.00 0.00 40 1019.0
20260906090058 32 224 4.8 11.3 0.00 0.00 0.00 39 1019.0
20260906084538 33 221 3.2 11.3 0.00 0.00 0.00 39 1019.0
20260906083038 33 224 1.6 8.0 0.00 0.00 0.00 34 1019.0
20260906081607 32 219 1.6 6.4 0.00 0.00 0.00 35 1019.1
20260906080031 32 277 0.0 6.4 0.00 0.00 0.00 35 1019.0
20260906074511 32 167 1.6 4.8 0.00 0.00 0.00 35 1019.0
20260906073052 31 304 0.0 4.8 0.00 0.00 0.00 36 1018.9
20260906071509 31 250 1.6 4.8 0.00 0.00 0.00 36 1018.8
20260906070041 30 218 1.6 4.8 0.00 0.00 0.00 37 1018.7
20260906064608 30 304 1.6 4.8 0.00 0.00 0.00 37 1018.6
20260906063014 29 280 1.6 3.2 0.00 0.00 0.00 38 1018.6
20260906061558 29 287 0.0 3.2 0.00 0.00 0.00 39 1018.3
20260906060056 28 315 0.0 4.8 0.00 0.00 0.00 40 1018.2
20260906054548 29 309 0.0 0.0 0.00 0.00 0.00 39 1018.1
20260906053019 28 23 0.0 0.0 0.00 0.00 0.00 39 1018.1
20260906051548 28 23 0.0 1.6 0.00 0.00 0.00 39 1018.1
20260906050009 27 23 0.0 1.6 0.00 0.00 0.00 41 1018.2
20260906044502 26 22 0.0 1.6 0.00 0.00 0.00 42 1018.1
20260906043013 25 22 0.0 3.2 0.00 0.00 0.00 44 1018.0
20260906041524 25 72 0.0 3.2 0.00 0.00 0.00 44 1017.7
20260906040036 25 52 1.6 6.4 0.00 0.00 0.00 44 1017.6
20260906034556 25 28 1.6 4.8 0.00 0.00 0.00 44 1017.6
20260906033035 25 58 1.6 4.8 0.00 0.00 0.00 43 1017.5
20260906031555 25 65 1.6 4.8 0.00 0.00 0.00 42 1017.5
20260906030039 25 51 1.6 3.2 0.00 0.00 0.00 42 1017.4
20260906024519 25 30 0.0 3.2 0.00 0.00 0.00 42 1017.1
20260906023058 25 113 1.6 4.8 0.00 0.00 0.00 42 1017.0
20260906021526 25 23 1.6 3.2 0.00 0.00 0.00 42 1017.2
20260906020046 25 38 0.0 3.2 0.00 0.00 0.00 42 1017.1
20260906014528 25 38 1.6 3.2 0.00 0.00 0.00 42 1017.1
20260906013051 25 38 0.0 3.2 0.00 0.00 0.00 43 1017.1
20260906011555 25 38 0.0 3.2 0.00 0.00 0.00 43 1017.3
20260906010046 25 39 0.0 1.6 0.00 0.00 0.00 43 1017.4
20260906004502 25 39 0.0 3.2 0.00 0.00 0.00 43 1017.3
20260906003048 25 21 0.0 3.2 0.00 0.00 0.00 42 1017.3
20260906001507 25 21 0.0 4.8 0.00 0.00 0.00 42 1017.2
20260906000108 25 77 1.6 4.8 0.00 0.00 0.00 41 1017.3
20260905234550 26 332 1.6 4.8 0.00 0.00 0.00 41 1017.4
20260905233059 26 63 0.0 6.4 0.00 0.00 0.00 41 1017.5
20260905231509 26 84 0.0 4.8 0.00 0.00 0.00 40 1017.7
20260905230047 26 86 0.0 3.2 0.00 0.00 0.00 39 1017.8
20260905224548 26 82 1.6 6.4 0.00 0.00 0.00 40 1017.9
20260905223027 26 90 1.6 4.8 0.00 0.00 0.00 40 1018.0
20260905221505 26 103 0.0 3.2 0.00 0.00 0.00 40 1018.1
20260905220058 27 105 0.0 1.6 0.00 0.00 0.00 40 1017.9
20260905214513 27 105 3.2 6.4 0.00 0.00 0.00 39 1017.9
20260905211608 27 126 1.6 3.2 0.00 0.00 0.00 40 1018.1
20260905210004 27 126 0.0 3.2 0.00 0.00 0.00 40 1018.2
20260905204513 27 25 0.0 4.8 0.00 0.00 0.00 40 1018.1
20260905203038 27 33 3.2 6.4 0.00 0.00 0.00 40 1017.9
20260905201512 27 46 3.2 8.0 0.00 0.00 0.00 40 1018.0
20260905200027 27 338 3.2 6.4 0.00 0.00 0.00 40 1018.0
20260905194606 27 347 3.2 6.4 0.00 0.00 0.00 39 1018.1
20260905191605 28 19 4.8 12.9 0.00 0.00 0.00 39 1017.9
20260905184517 28 24 4.8 14.5 0.00 0.00 0.00 39 1018.0
20260905183030 28 20 9.7 12.9 0.00 0.00 0.00 39 1017.9
20260905181517 28 54 4.8 11.3 0.00 0.00 0.00 39 1017.8
20260905180031 28 15 3.2 12.9 0.00 0.00 0.00 39 1017.7
20260905174537 28 70 6.4 14.5 0.00 0.00 0.00 39 1017.5
20260905173009 28 35 8.0 14.5 0.00 0.00 0.00 39 1017.6
20260905171600 29 44 9.7 20.9 0.00 0.00 0.00 39 1017.4
20260905170021 29 41 8.0 20.9 0.00 0.00 0.00 39 1017.3
20260905164558 30 352 11.3 20.9 0.00 0.00 0.00 38 1017.3
20260905163040 30 326 9.7 17.7 0.00 0.00 0.00 37 1017.4
20260905161602 31 23 9.7 17.7 0.00 0.00 0.00 35 1017.3
20260905160017 31 63 11.3 27.4 0.00 0.00 0.00 35 1017.4
20260905154507 31 13 12.9 20.9 0.00 0.00 0.00 34 1017.5
20260905153038 31 38 11.3 25.7 0.00 0.00 0.00 35 1017.5
20260905151507 31 8 14.5 25.7 0.00 0.00 0.00 35 1017.4
20260905150017 31 17 11.3 27.4 0.00 0.00 0.00 34 1017.3
20260905144635 31 313 16.1 24.1 0.00 0.00 0.00 35 1017.3
20260905141604 31 57 11.3 24.1 0.00 0.00 0.00 36 1017.1
20260905140048 31 321 14.5 25.7 0.00 0.00 0.00 37 1017.1
20260905134513 31 343 9.7 30.6 0.00 0.00 0.00 38 1017.2
20260905133056 31 27 8.0 27.4 0.00 0.00 0.00 37 1017.3
20260905131535 31 38 9.7 29.0 0.00 0.00 0.00 37 1017.4
20260905130016 31 55 12.9 30.6 0.00 0.00 0.00 37 1017.3
20260905124534 31 20 17.7 35.4 0.00 0.00 0.00 37 1017.4
20260905123018 31 23 12.9 30.6 0.00 0.00 0.00 37 1017.5
20260905121519 31 32 17.7 27.4 0.00 0.00 0.00 38 1017.7
20260905120018 31 328 12.9 27.4 0.00 0.00 0.00 38 1017.9
20260905114505 31 358 9.7 24.1 0.00 0.00 0.00 38 1017.9
20260905113056 31 336 14.5 27.4 0.00 0.00 0.00 39 1017.9
20260905111508 31 333 12.9 27.4 0.00 0.00 0.00 38 1017.9
20260905110107 31 332 12.9 29.0 0.00 0.00 0.00 37 1017.9
20260905104558 30 34 12.9 29.0 0.00 0.00 0.00 39 1018.2